This demonstration page uses our WeatherBlox Daily Observations layout. Learn more.

Left ArrowRight Arrow

Hourly Observations for May 28, 2020

Temp ( °F °C ) Dew Point ( °F °C ) Humidity (%) Winds ( mph kmh ) Pressure ( in mb ) Visibility ( mi km ) Precip ( " mm )
12:56 am 00:56 Clear 58 14.4 52 11.1 81 81 NW 6 9 29.98 1015 10 16 0.00 0.00
1:56 am 01:56 Clear 58 14.4 52 11.1 81 81 NW 7 11 29.97 1015 10 16 0.00 0.00
2:56 am 02:56 Clear 57 13.9 52 11.1 83 83 NW 10 17 29.98 1015 10 16 0.00 0.00
3:56 am 03:56 Clear 56 13.3 51 10.6 84 84 WNW 8 13 29.99 1016 10 16 0.00 0.00
4:56 am 04:56 Clear 55 12.8 51 10.6 87 87 WNW 10 17 30.00 1016 10 16 0.00 0.00
5:56 am 05:56 Clear 56 13.3 51 10.6 84 84 NW 14 22 30.03 1017 10 16 0.00 0.00
6:56 am 06:56 Cloudy 60 15.6 54 12.2 80 80 N 17 28 30.04 1017 10 16 0.00 0.00
7:56 am 07:56 Mostly Sunny 62 16.7 54 12.2 75 75 N 15 24 30.05 1018 10 16 0.00 0.00
8:56 am 08:56 Partly Cloudy 63 17.2 55 12.8 76 76 N 16 26 30.07 1018 10 16 0.00 0.00
9:56 am 09:56 Cloudy 65 18.3 55 12.8 70 70 N 16 26 30.08 1019 10 16 0.00 0.00
10:56 am 10:56 Sunny 71 21.7 56 13.3 59 59 NNE 18 30 30.08 1019 10 16 0.00 0.00
11:56 am 11:56 Mostly Sunny 74 23.3 55 12.8 52 52 NNE 22 35 30.09 1019 10 16 0.00 0.00
12:56 pm 12:56 Sunny 75 23.9 56 13.3 52 52 N 22 35 30.09 1019 10 16 0.00 0.00
1:56 pm 13:56 Sunny 77 25 53 11.7 43 43 NNE 23 37 30.09 1019 10 16 0.00 0.00
2:56 pm 14:56 Sunny 77 25 51 10.6 40 40 N 22 35 30.09 1019 10 16 0.00 0.00
3:56 pm 15:56 Sunny 77 25 49 9.4 37 37 N 18 30 30.10 1019 10 16 0.00 0.00
4:56 pm 16:56 Sunny 78 25.6 49 9.4 36 36 N 14 22 30.09 1019 10 16 0.00 0.00
5:56 pm 17:56 Sunny 76 24.4 50 10 40 40 N 17 28 30.10 1019 10 16 0.00 0.00
6:56 pm 18:56 Mostly Sunny 74 23.3 49 9.4 41 41 N 14 22 30.11 1020 10 16 0.00 0.00
7:56 pm 19:56 Sunny 71 21.7 48 8.9 44 44 N 16 26 30.13 1020 10 16 0.00 0.00
8:56 pm 20:56 Sunny 66 18.9 47 8.3 50 50 NNE 13 20 30.14 1021 10 16 0.00 0.00
9:56 pm 21:56 Clear 62 16.7 47 8.3 58 58 N 9 15 30.17 1022 10 16 0.00 0.00
10:56 pm 22:56 Clear 59 15 47 8.3 64 64 N 12 19 30.18 1022 10 16 0.00 0.00
11:56 pm 23:56 Clear 56 13.3 44 6.7 65 65 N 12 19 30.19 1023 10 16 0.00 0.00

Powered by AerisWeather